NOAA 16 DEB, 41146

Orbit data source: Space-Track

NOAA 16 DEB, 41146 is space debris in SSO originally from a launch on Thu, 21 Sep 2000 UTC launched from the Air Force Western Test Range (AFWTR). Debris objects in space refer to the collection of defunct objects orbiting the Earth. Examples of debris include non-operational satellites, rocket bodies, and fragments generated from explosions, collisions, or faulty payload assembly.

Loading next visibility...
Identifier
41146, 2000-055CD
Orbit
SSO
Country
Flag of USUS
Related business
Manufacturer
Unknown
Mission
Spacecraft
Bus & Motor
Unknown
Mass
Unknown
Launch date (UTC)
2000-09-21 (25 years ago)
Launch vehicle
Unknown
Launch site
Air Force Western Test Range (AFWTR)
Object type
Payload
Rocket body
Debris
Shape & HBR
Unknown shape, 0.1 m
Radar Cross Section
Small (<0.1 m²)

Expand to show TLE details & history
Last TLE update: 22 hours ago

TLE from 22 hours ago
0 NOAA 16 DEB
1 41146U 00055CD  25293.27340968  .00030092  00000-0  81063-2 0  9990
2 41146  98.8295  43.7050 0019862 113.5267 246.8014 14.47726433511653
Epoch: 2025-10-20T06:33Z
TLE epoch observation values (Epoch: 2025-10-20T06:33:42.596Z)
Latitude
0.00001°
Longitude
-83.70057°
Altitude
741.621 km
Speed
7.481 km/s
True Right ascension
02h 54m 49s
True Declination
0° 00' 00"
Sunlit
Object was in full shadow at epoch
Visualization orbit readout
Latitude
Unknown
Longitude
Unknown
Altitude
Unknown
Speed
Unknown
Apparent Right ascension
Unknown
Apparent Declination
Unknown
Sunlit
N/A
Visualization observer readout
Local Sidereal Time
23:08:12
Azimuth
Unknown
Elevation
Unknown
Doppler factor
Unknown
Orbital elements
Apogee altitude
744.33 km
Perigee altitude
716.093 km
Semi-major axis
7,108.348 km
Eccentricity
0.00199
Inclination
98.8295°
RAAN
43.705°
Arg. of periapsis
113.5267°
True anomaly
246.59241°
Mean anomaly
246.8014°
Eccentric anomaly
246.69688°
Mean motion
3.62151 °/min
Orbital period
99.41 mins
BSTAR
0.0081063
Loading maneuver chart data...
Computing Atmospheric mass density...

Documentation

Showing up to 5 results
|